Index of /20260414/WXO-DD/model_gdps/15km/12/216
Name Last modified Size Description
Parent Directory -
20260414T12Z_MSC_GDPS_AbsoluteVorticity_IsbL-0200_LatLon0.15_PT216H.grib2 2026-04-14 16:46 1.5M
20260414T12Z_MSC_GDPS_AbsoluteVorticity_IsbL-0250_LatLon0.15_PT216H.grib2 2026-04-14 16:46 1.3M
20260414T12Z_MSC_GDPS_AbsoluteVorticity_IsbL-0500_LatLon0.15_PT216H.grib2 2026-04-14 16:46 1.5M
20260414T12Z_MSC_GDPS_AbsoluteVorticity_IsbL-0700_LatLon0.15_PT216H.grib2 2026-04-14 16:46 1.3M
20260414T12Z_MSC_GDPS_AbsoluteVorticity_IsbL-0850_LatLon0.15_PT216H.grib2 2026-04-14 16:46 1.6M
20260414T12Z_MSC_GDPS_AirTemp-Max_AGL-2m_LatLon0.15_PT216H.grib2 2026-04-14 16:46 740K
20260414T12Z_MSC_GDPS_AirTemp-Min_AGL-2m_LatLon0.15_PT216H.grib2 2026-04-14 16:46 784K
20260414T12Z_MSC_GDPS_AirTemp_AGL-120m_LatLon0.15_PT216H.grib2 2026-04-14 16:46 908K
20260414T12Z_MSC_GDPS_AirTemp_AGL-2m_LatLon0.15_PT216H.grib2 2026-04-14 16:46 1.0M
20260414T12Z_MSC_GDPS_AirTemp_AGL-40m_LatLon0.15_PT216H.grib2 2026-04-14 16:46 924K
20260414T12Z_MSC_GDPS_AirTemp_AGL-80m_LatLon0.15_PT216H.grib2 2026-04-14 16:46 915K
20260414T12Z_MSC_GDPS_AirTemp_IsbL-0001_LatLon0.15_PT216H.grib2 2026-04-14 16:46 644K
20260414T12Z_MSC_GDPS_AirTemp_IsbL-0005_LatLon0.15_PT216H.grib2 2026-04-14 16:46 746K
20260414T12Z_MSC_GDPS_AirTemp_IsbL-0010_LatLon0.15_PT216H.grib2 2026-04-14 16:46 749K
20260414T12Z_MSC_GDPS_AirTemp_IsbL-0020_LatLon0.15_PT216H.grib2 2026-04-14 16:46 697K
20260414T12Z_MSC_GDPS_AirTemp_IsbL-0030_LatLon0.15_PT216H.grib2 2026-04-14 16:46 748K
20260414T12Z_MSC_GDPS_AirTemp_IsbL-0050_LatLon0.15_PT216H.grib2 2026-04-14 16:46 809K
20260414T12Z_MSC_GDPS_AirTemp_IsbL-0100_LatLon0.15_PT216H.grib2 2026-04-14 16:46 963K
20260414T12Z_MSC_GDPS_AirTemp_IsbL-0150_LatLon0.15_PT216H.grib2 2026-04-14 16:46 1.0M
20260414T12Z_MSC_GDPS_AirTemp_IsbL-0175_LatLon0.15_PT216H.grib2 2026-04-14 16:46 1.0M
20260414T12Z_MSC_GDPS_AirTemp_IsbL-0200_LatLon0.15_PT216H.grib2 2026-04-14 16:46 1.0M
20260414T12Z_MSC_GDPS_AirTemp_IsbL-0225_LatLon0.15_PT216H.grib2 2026-04-14 16:46 1.0M
20260414T12Z_MSC_GDPS_AirTemp_IsbL-0250_LatLon0.15_PT216H.grib2 2026-04-14 16:46 1.0M
20260414T12Z_MSC_GDPS_AirTemp_IsbL-0275_LatLon0.15_PT216H.grib2 2026-04-14 16:46 1.0M
20260414T12Z_MSC_GDPS_AirTemp_IsbL-0300_LatLon0.15_PT216H.grib2 2026-04-14 16:46 1.0M
20260414T12Z_MSC_GDPS_AirTemp_IsbL-0350_LatLon0.15_PT216H.grib2 2026-04-14 16:46 939K
20260414T12Z_MSC_GDPS_AirTemp_IsbL-0400_LatLon0.15_PT216H.grib2 2026-04-14 16:46 951K
20260414T12Z_MSC_GDPS_AirTemp_IsbL-0450_LatLon0.15_PT216H.grib2 2026-04-14 16:46 1.0M
20260414T12Z_MSC_GDPS_AirTemp_IsbL-0500_LatLon0.15_PT216H.grib2 2026-04-14 16:46 1.0M
20260414T12Z_MSC_GDPS_AirTemp_IsbL-0550_LatLon0.15_PT216H.grib2 2026-04-14 16:46 1.0M
20260414T12Z_MSC_GDPS_AirTemp_IsbL-0600_LatLon0.15_PT216H.grib2 2026-04-14 16:46 905K
20260414T12Z_MSC_GDPS_AirTemp_IsbL-0650_LatLon0.15_PT216H.grib2 2026-04-14 16:46 935K
20260414T12Z_MSC_GDPS_AirTemp_IsbL-0700_LatLon0.15_PT216H.grib2 2026-04-14 16:46 968K
20260414T12Z_MSC_GDPS_AirTemp_IsbL-0750_LatLon0.15_PT216H.grib2 2026-04-14 16:46 1.0M
20260414T12Z_MSC_GDPS_AirTemp_IsbL-0800_LatLon0.15_PT216H.grib2 2026-04-14 16:46 1.1M
20260414T12Z_MSC_GDPS_AirTemp_IsbL-0850_LatLon0.15_PT216H.grib2 2026-04-14 16:46 1.1M
20260414T12Z_MSC_GDPS_AirTemp_IsbL-0875_LatLon0.15_PT216H.grib2 2026-04-14 16:46 1.2M
20260414T12Z_MSC_GDPS_AirTemp_IsbL-0900_LatLon0.15_PT216H.grib2 2026-04-14 16:46 1.2M
20260414T12Z_MSC_GDPS_AirTemp_IsbL-0925_LatLon0.15_PT216H.grib2 2026-04-14 16:46 1.1M
20260414T12Z_MSC_GDPS_AirTemp_IsbL-0950_LatLon0.15_PT216H.grib2 2026-04-14 16:46 1.1M
20260414T12Z_MSC_GDPS_AirTemp_IsbL-0970_LatLon0.15_PT216H.grib2 2026-04-14 16:46 1.1M
20260414T12Z_MSC_GDPS_AirTemp_IsbL-0985_LatLon0.15_PT216H.grib2 2026-04-14 16:46 1.1M
20260414T12Z_MSC_GDPS_AirTemp_IsbL-1000_LatLon0.15_PT216H.grib2 2026-04-14 16:46 1.1M
20260414T12Z_MSC_GDPS_AirTemp_IsbL-1015_LatLon0.15_PT216H.grib2 2026-04-14 16:46 1.1M
20260414T12Z_MSC_GDPS_Albedo_Sfc_LatLon0.15_PT216H.grib2 2026-04-14 16:46 245K
20260414T12Z_MSC_GDPS_CAPE_Sfc_LatLon0.15_PT216H.grib2 2026-04-14 16:46 3.9M
20260414T12Z_MSC_GDPS_CIN_Sfc_LatLon0.15_PT216H.grib2 2026-04-14 16:46 3.0M
20260414T12Z_MSC_GDPS_CloudWater_EAtm_LatLon0.15_PT216H.grib2 2026-04-14 16:46 536K
20260414T12Z_MSC_GDPS_ConvectivePrecip-Accum_Sfc_LatLon0.15_PT216H.grib2 2026-04-14 16:46 4.0M
20260414T12Z_MSC_GDPS_DewPointDepression_AGL-2m_LatLon0.15_PT216H.grib2 2026-04-14 16:46 753K
20260414T12Z_MSC_GDPS_DewPointDepression_IsbL-0010_LatLon0.15_PT216H.grib2 2026-04-14 16:46 7.6K
20260414T12Z_MSC_GDPS_DewPointDepression_IsbL-0020_LatLon0.15_PT216H.grib2 2026-04-14 16:46 64K
20260414T12Z_MSC_GDPS_DewPointDepression_IsbL-0030_LatLon0.15_PT216H.grib2 2026-04-14 16:46 78K
20260414T12Z_MSC_GDPS_DewPointDepression_IsbL-0050_LatLon0.15_PT216H.grib2 2026-04-14 16:46 342K
20260414T12Z_MSC_GDPS_DewPointDepression_IsbL-0100_LatLon0.15_PT216H.grib2 2026-04-14 16:46 378K
20260414T12Z_MSC_GDPS_DewPointDepression_IsbL-0150_LatLon0.15_PT216H.grib2 2026-04-14 16:46 473K
20260414T12Z_MSC_GDPS_DewPointDepression_IsbL-0175_LatLon0.15_PT216H.grib2 2026-04-14 16:46 561K
20260414T12Z_MSC_GDPS_DewPointDepression_IsbL-0200_LatLon0.15_PT216H.grib2 2026-04-14 16:46 667K
20260414T12Z_MSC_GDPS_DewPointDepression_IsbL-0225_LatLon0.15_PT216H.grib2 2026-04-14 16:46 781K
20260414T12Z_MSC_GDPS_DewPointDepression_IsbL-0250_LatLon0.15_PT216H.grib2 2026-04-14 16:46 865K
20260414T12Z_MSC_GDPS_DewPointDepression_IsbL-0275_LatLon0.15_PT216H.grib2 2026-04-14 16:46 883K
20260414T12Z_MSC_GDPS_DewPointDepression_IsbL-0300_LatLon0.15_PT216H.grib2 2026-04-14 16:46 931K
20260414T12Z_MSC_GDPS_DewPointDepression_IsbL-0350_LatLon0.15_PT216H.grib2 2026-04-14 16:46 970K
20260414T12Z_MSC_GDPS_DewPointDepression_IsbL-0400_LatLon0.15_PT216H.grib2 2026-04-14 16:46 1.0M
20260414T12Z_MSC_GDPS_DewPointDepression_IsbL-0450_LatLon0.15_PT216H.grib2 2026-04-14 16:46 1.0M
20260414T12Z_MSC_GDPS_DewPointDepression_IsbL-0500_LatLon0.15_PT216H.grib2 2026-04-14 16:46 1.0M
20260414T12Z_MSC_GDPS_DewPointDepression_IsbL-0550_LatLon0.15_PT216H.grib2 2026-04-14 16:46 1.0M
20260414T12Z_MSC_GDPS_DewPointDepression_IsbL-0600_LatLon0.15_PT216H.grib2 2026-04-14 16:46 1.1M
20260414T12Z_MSC_GDPS_DewPointDepression_IsbL-0650_LatLon0.15_PT216H.grib2 2026-04-14 16:46 1.1M
20260414T12Z_MSC_GDPS_DewPointDepression_IsbL-0700_LatLon0.15_PT216H.grib2 2026-04-14 16:46 1.1M
20260414T12Z_MSC_GDPS_DewPointDepression_IsbL-0750_LatLon0.15_PT216H.grib2 2026-04-14 16:46 1.1M
20260414T12Z_MSC_GDPS_DewPointDepression_IsbL-0800_LatLon0.15_PT216H.grib2 2026-04-14 16:46 1.2M
20260414T12Z_MSC_GDPS_DewPointDepression_IsbL-0850_LatLon0.15_PT216H.grib2 2026-04-14 16:46 1.2M
20260414T12Z_MSC_GDPS_DewPointDepression_IsbL-0875_LatLon0.15_PT216H.grib2 2026-04-14 16:46 1.1M
20260414T12Z_MSC_GDPS_DewPointDepression_IsbL-0900_LatLon0.15_PT216H.grib2 2026-04-14 16:46 1.1M
20260414T12Z_MSC_GDPS_DewPointDepression_IsbL-0925_LatLon0.15_PT216H.grib2 2026-04-14 16:46 1.0M
20260414T12Z_MSC_GDPS_DewPointDepression_IsbL-0950_LatLon0.15_PT216H.grib2 2026-04-14 16:46 1.0M
20260414T12Z_MSC_GDPS_DewPointDepression_IsbL-0970_LatLon0.15_PT216H.grib2 2026-04-14 16:46 1.0M
20260414T12Z_MSC_GDPS_DewPointDepression_IsbL-0985_LatLon0.15_PT216H.grib2 2026-04-14 16:46 1.0M
20260414T12Z_MSC_GDPS_DewPointDepression_IsbL-1000_LatLon0.15_PT216H.grib2 2026-04-14 16:46 1.0M
20260414T12Z_MSC_GDPS_DewPointDepression_IsbL-1015_LatLon0.15_PT216H.grib2 2026-04-14 16:46 910K
20260414T12Z_MSC_GDPS_DewPoint_AGL-2m_LatLon0.15_PT216H.grib2 2026-04-14 16:46 611K
20260414T12Z_MSC_GDPS_DownwardLongwaveRadiationFlux-Accum_Sfc_LatLon0.15_PT216H.grib2 2026-04-14 16:46 722K
20260414T12Z_MSC_GDPS_DownwardShortwaveRadiationFlux-Accum_NTAtm_LatLon0.15_PT216H.grib2 2026-04-14 16:46 249K
20260414T12Z_MSC_GDPS_DownwardShortwaveRadiationFlux-Accum_Sfc_LatLon0.15_PT216H.grib2 2026-04-14 16:46 916K
20260414T12Z_MSC_GDPS_FreezingRain-Accum12h_Sfc_LatLon0.15_PT216H.grib2 2026-04-14 16:46 95K
20260414T12Z_MSC_GDPS_FreezingRain-Accum24h_Sfc_LatLon0.15_PT216H.grib2 2026-04-14 16:46 126K
20260414T12Z_MSC_GDPS_FreezingRain-Accum6h_Sfc_LatLon0.15_PT216H.grib2 2026-04-14 16:46 60K
20260414T12Z_MSC_GDPS_FreezingRain-Accum_Sfc_LatLon0.15_PT216H.grib2 2026-04-14 16:46 406K
20260414T12Z_MSC_GDPS_GeopotentialHeight_IsbL-0001_LatLon0.15_PT216H.grib2 2026-04-14 16:46 397K
20260414T12Z_MSC_GDPS_GeopotentialHeight_IsbL-0005_LatLon0.15_PT216H.grib2 2026-04-14 16:46 502K
20260414T12Z_MSC_GDPS_GeopotentialHeight_IsbL-0010_LatLon0.15_PT216H.grib2 2026-04-14 16:46 434K
20260414T12Z_MSC_GDPS_GeopotentialHeight_IsbL-0020_LatLon0.15_PT216H.grib2 2026-04-14 16:46 578K
20260414T12Z_MSC_GDPS_GeopotentialHeight_IsbL-0030_LatLon0.15_PT216H.grib2 2026-04-14 16:46 581K
20260414T12Z_MSC_GDPS_GeopotentialHeight_IsbL-0050_LatLon0.15_PT216H.grib2 2026-04-14 16:46 579K
20260414T12Z_MSC_GDPS_GeopotentialHeight_IsbL-0100_LatLon0.15_PT216H.grib2 2026-04-14 16:46 609K
20260414T12Z_MSC_GDPS_GeopotentialHeight_IsbL-0150_LatLon0.15_PT216H.grib2 2026-04-14 16:46 628K
20260414T12Z_MSC_GDPS_GeopotentialHeight_IsbL-0175_LatLon0.15_PT216H.grib2 2026-04-14 16:46 635K
20260414T12Z_MSC_GDPS_GeopotentialHeight_IsbL-0200_LatLon0.15_PT216H.grib2 2026-04-14 16:46 643K
20260414T12Z_MSC_GDPS_GeopotentialHeight_IsbL-0225_LatLon0.15_PT216H.grib2 2026-04-14 16:46 642K
20260414T12Z_MSC_GDPS_GeopotentialHeight_IsbL-0250_LatLon0.15_PT216H.grib2 2026-04-14 16:46 648K
20260414T12Z_MSC_GDPS_GeopotentialHeight_IsbL-0275_LatLon0.15_PT216H.grib2 2026-04-14 16:46 652K
20260414T12Z_MSC_GDPS_GeopotentialHeight_IsbL-0300_LatLon0.15_PT216H.grib2 2026-04-14 16:46 644K
20260414T12Z_MSC_GDPS_GeopotentialHeight_IsbL-0350_LatLon0.15_PT216H.grib2 2026-04-14 16:46 642K
20260414T12Z_MSC_GDPS_GeopotentialHeight_IsbL-0400_LatLon0.15_PT216H.grib2 2026-04-14 16:46 630K
20260414T12Z_MSC_GDPS_GeopotentialHeight_IsbL-0450_LatLon0.15_PT216H.grib2 2026-04-14 16:46 619K
20260414T12Z_MSC_GDPS_GeopotentialHeight_IsbL-0500_LatLon0.15_PT216H.grib2 2026-04-14 16:46 537K
20260414T12Z_MSC_GDPS_GeopotentialHeight_IsbL-0550_LatLon0.15_PT216H.grib2 2026-04-14 16:46 530K
20260414T12Z_MSC_GDPS_GeopotentialHeight_IsbL-0600_LatLon0.15_PT216H.grib2 2026-04-14 16:46 695K
20260414T12Z_MSC_GDPS_GeopotentialHeight_IsbL-0650_LatLon0.15_PT216H.grib2 2026-04-14 16:46 694K
20260414T12Z_MSC_GDPS_GeopotentialHeight_IsbL-0700_LatLon0.15_PT216H.grib2 2026-04-14 16:46 690K
20260414T12Z_MSC_GDPS_GeopotentialHeight_IsbL-0750_LatLon0.15_PT216H.grib2 2026-04-14 16:46 694K
20260414T12Z_MSC_GDPS_GeopotentialHeight_IsbL-0800_LatLon0.15_PT216H.grib2 2026-04-14 16:46 708K
20260414T12Z_MSC_GDPS_GeopotentialHeight_IsbL-0850_LatLon0.15_PT216H.grib2 2026-04-14 16:46 718K
20260414T12Z_MSC_GDPS_GeopotentialHeight_IsbL-0875_LatLon0.15_PT216H.grib2 2026-04-14 16:46 719K
20260414T12Z_MSC_GDPS_GeopotentialHeight_IsbL-0900_LatLon0.15_PT216H.grib2 2026-04-14 16:46 728K
20260414T12Z_MSC_GDPS_GeopotentialHeight_IsbL-0925_LatLon0.15_PT216H.grib2 2026-04-14 16:46 734K
20260414T12Z_MSC_GDPS_GeopotentialHeight_IsbL-0950_LatLon0.15_PT216H.grib2 2026-04-14 16:46 744K
20260414T12Z_MSC_GDPS_GeopotentialHeight_IsbL-0970_LatLon0.15_PT216H.grib2 2026-04-14 16:46 754K
20260414T12Z_MSC_GDPS_GeopotentialHeight_IsbL-0985_LatLon0.15_PT216H.grib2 2026-04-14 16:46 770K
20260414T12Z_MSC_GDPS_GeopotentialHeight_IsbL-1000_LatLon0.15_PT216H.grib2 2026-04-14 16:46 792K
20260414T12Z_MSC_GDPS_GeopotentialHeight_IsbL-1015_LatLon0.15_PT216H.grib2 2026-04-14 16:46 815K
20260414T12Z_MSC_GDPS_Humidex_Sfc_LatLon0.15_PT216H.grib2 2026-04-14 16:46 5.3M
20260414T12Z_MSC_GDPS_IcePellets-Accum12h_Sfc_LatLon0.15_PT216H.grib2 2026-04-14 16:46 32K
20260414T12Z_MSC_GDPS_IcePellets-Accum24h_Sfc_LatLon0.15_PT216H.grib2 2026-04-14 16:46 50K
20260414T12Z_MSC_GDPS_IcePellets-Accum6h_Sfc_LatLon0.15_PT216H.grib2 2026-04-14 16:46 22K
20260414T12Z_MSC_GDPS_IcePellets-Accum_Sfc_LatLon0.15_PT216H.grib2 2026-04-14 16:46 250K
20260414T12Z_MSC_GDPS_KIndex_Sfc_LatLon0.15_PT216H.grib2 2026-04-14 16:46 6.5M
20260414T12Z_MSC_GDPS_LatentHeatNetFlux_Sfc_LatLon0.15_PT216H.grib2 2026-04-14 16:46 714K
20260414T12Z_MSC_GDPS_LiftedIndex-MU-VT_IsbL-0500_LatLon0.15_PT216H.grib2 2026-04-14 16:46 5.4M
20260414T12Z_MSC_GDPS_NetLongwaveRadiationFlux-Accum_Sfc_LatLon0.15_PT216H.grib2 2026-04-14 16:46 906K
20260414T12Z_MSC_GDPS_NetShortwaveRadiationFlux-Accum_Sfc_LatLon0.15_PT216H.grib2 2026-04-14 16:46 902K
20260414T12Z_MSC_GDPS_O3MixingRatio_LatLon0.15_PT216H.grib2 2026-04-14 16:57 2.2M
20260414T12Z_MSC_GDPS_O3_EAtm_LatLon0.15_PT216H.grib2 2026-04-14 16:57 2.4M
20260414T12Z_MSC_GDPS_PlanetaryBoundaryLayerHeight_Sfc_LatLon0.15_PT216H.grib2 2026-04-14 16:46 2.5M
20260414T12Z_MSC_GDPS_Precip-Accum12h_Sfc_LatLon0.15_PT216H.grib2 2026-04-14 16:46 4.1M
20260414T12Z_MSC_GDPS_Precip-Accum24h_Sfc_LatLon0.15_PT216H.grib2 2026-04-14 16:46 4.6M
20260414T12Z_MSC_GDPS_Precip-Accum6h_Sfc_LatLon0.15_PT216H.grib2 2026-04-14 16:46 3.9M
20260414T12Z_MSC_GDPS_Precip-Accum_Sfc_LatLon0.15_PT216H.grib2 2026-04-14 16:46 5.1M
20260414T12Z_MSC_GDPS_PrecipRate_Sfc_LatLon0.15_PT216H.grib2 2026-04-14 16:46 3.2M
20260414T12Z_MSC_GDPS_PrecipType-Instant_Sfc_LatLon0.15_PT216H.grib2 2026-04-14 16:46 1.6M
20260414T12Z_MSC_GDPS_Pressure_MSL_LatLon0.15_PT216H.grib2 2026-04-14 16:46 727K
20260414T12Z_MSC_GDPS_Pressure_PVU-1.5_LatLon0.15_PT216H.grib2 2026-04-14 16:46 5.8M
20260414T12Z_MSC_GDPS_Pressure_PVU-1_LatLon0.15_PT216H.grib2 2026-04-14 16:46 6.0M
20260414T12Z_MSC_GDPS_Pressure_PVU-2_LatLon0.15_PT216H.grib2 2026-04-14 16:46 5.6M
20260414T12Z_MSC_GDPS_Pressure_Sfc_LatLon0.15_PT216H.grib2 2026-04-14 16:46 1.1M
20260414T12Z_MSC_GDPS_RadiativeTemp_Sfc_LatLon0.15_PT216H.grib2 2026-04-14 16:46 677K
20260414T12Z_MSC_GDPS_Rain-Accum12h_Sfc_LatLon0.15_PT216H.grib2 2026-04-14 16:46 2.6M
20260414T12Z_MSC_GDPS_Rain-Accum24h_Sfc_LatLon0.15_PT216H.grib2 2026-04-14 16:46 3.1M
20260414T12Z_MSC_GDPS_Rain-Accum6h_Sfc_LatLon0.15_PT216H.grib2 2026-04-14 16:46 2.4M
20260414T12Z_MSC_GDPS_Rain-Accum_Sfc_LatLon0.15_PT216H.grib2 2026-04-14 16:46 4.2M
20260414T12Z_MSC_GDPS_RelativeHumidity_AGL-2m_LatLon0.15_PT216H.grib2 2026-04-14 16:46 1.1M
20260414T12Z_MSC_GDPS_RelativeHumidity_IsbL-0010_LatLon0.15_PT216H.grib2 2026-04-14 16:46 211K
20260414T12Z_MSC_GDPS_RelativeHumidity_IsbL-0020_LatLon0.15_PT216H.grib2 2026-04-14 16:46 229K
20260414T12Z_MSC_GDPS_RelativeHumidity_IsbL-0030_LatLon0.15_PT216H.grib2 2026-04-14 16:46 409K
20260414T12Z_MSC_GDPS_RelativeHumidity_IsbL-0050_LatLon0.15_PT216H.grib2 2026-04-14 16:46 405K
20260414T12Z_MSC_GDPS_RelativeHumidity_IsbL-0100_LatLon0.15_PT216H.grib2 2026-04-14 16:46 327K
20260414T12Z_MSC_GDPS_RelativeHumidity_IsbL-0150_LatLon0.15_PT216H.grib2 2026-04-14 16:46 663K
20260414T12Z_MSC_GDPS_RelativeHumidity_IsbL-0175_LatLon0.15_PT216H.grib2 2026-04-14 16:46 800K
20260414T12Z_MSC_GDPS_RelativeHumidity_IsbL-0200_LatLon0.15_PT216H.grib2 2026-04-14 16:46 716K
20260414T12Z_MSC_GDPS_RelativeHumidity_IsbL-0225_LatLon0.15_PT216H.grib2 2026-04-14 16:46 808K
20260414T12Z_MSC_GDPS_RelativeHumidity_IsbL-0250_LatLon0.15_PT216H.grib2 2026-04-14 16:46 890K
20260414T12Z_MSC_GDPS_RelativeHumidity_IsbL-0275_LatLon0.15_PT216H.grib2 2026-04-14 16:46 906K
20260414T12Z_MSC_GDPS_RelativeHumidity_IsbL-0300_LatLon0.15_PT216H.grib2 2026-04-14 16:46 948K
20260414T12Z_MSC_GDPS_RelativeHumidity_IsbL-0350_LatLon0.15_PT216H.grib2 2026-04-14 16:46 965K
20260414T12Z_MSC_GDPS_RelativeHumidity_IsbL-0400_LatLon0.15_PT216H.grib2 2026-04-14 16:46 1.0M
20260414T12Z_MSC_GDPS_RelativeHumidity_IsbL-0450_LatLon0.15_PT216H.grib2 2026-04-14 16:46 1.0M
20260414T12Z_MSC_GDPS_RelativeHumidity_IsbL-0500_LatLon0.15_PT216H.grib2 2026-04-14 16:46 1.0M
20260414T12Z_MSC_GDPS_RelativeHumidity_IsbL-0550_LatLon0.15_PT216H.grib2 2026-04-14 16:46 1.0M
20260414T12Z_MSC_GDPS_RelativeHumidity_IsbL-0600_LatLon0.15_PT216H.grib2 2026-04-14 16:46 1.1M
20260414T12Z_MSC_GDPS_RelativeHumidity_IsbL-0650_LatLon0.15_PT216H.grib2 2026-04-14 16:46 1.1M
20260414T12Z_MSC_GDPS_RelativeHumidity_IsbL-0700_LatLon0.15_PT216H.grib2 2026-04-14 16:46 1.1M
20260414T12Z_MSC_GDPS_RelativeHumidity_IsbL-0750_LatLon0.15_PT216H.grib2 2026-04-14 16:46 1.1M
20260414T12Z_MSC_GDPS_RelativeHumidity_IsbL-0800_LatLon0.15_PT216H.grib2 2026-04-14 16:46 1.2M
20260414T12Z_MSC_GDPS_RelativeHumidity_IsbL-0850_LatLon0.15_PT216H.grib2 2026-04-14 16:46 1.3M
20260414T12Z_MSC_GDPS_RelativeHumidity_IsbL-0875_LatLon0.15_PT216H.grib2 2026-04-14 16:46 1.3M
20260414T12Z_MSC_GDPS_RelativeHumidity_IsbL-0900_LatLon0.15_PT216H.grib2 2026-04-14 16:46 1.2M
20260414T12Z_MSC_GDPS_RelativeHumidity_IsbL-0925_LatLon0.15_PT216H.grib2 2026-04-14 16:46 1.2M
20260414T12Z_MSC_GDPS_RelativeHumidity_IsbL-0950_LatLon0.15_PT216H.grib2 2026-04-14 16:46 1.2M
20260414T12Z_MSC_GDPS_RelativeHumidity_IsbL-0970_LatLon0.15_PT216H.grib2 2026-04-14 16:46 1.2M
20260414T12Z_MSC_GDPS_RelativeHumidity_IsbL-0985_LatLon0.15_PT216H.grib2 2026-04-14 16:46 1.1M
20260414T12Z_MSC_GDPS_RelativeHumidity_IsbL-1000_LatLon0.15_PT216H.grib2 2026-04-14 16:46 1.1M
20260414T12Z_MSC_GDPS_RelativeHumidity_IsbL-1015_LatLon0.15_PT216H.grib2 2026-04-14 16:46 1.0M
20260414T12Z_MSC_GDPS_RelativeVorticity_IsbL-0200_LatLon0.15_PT216H.grib2 2026-04-14 16:46 1.5M
20260414T12Z_MSC_GDPS_RelativeVorticity_IsbL-0250_LatLon0.15_PT216H.grib2 2026-04-14 16:46 1.3M
20260414T12Z_MSC_GDPS_RelativeVorticity_IsbL-0500_LatLon0.15_PT216H.grib2 2026-04-14 16:46 1.5M
20260414T12Z_MSC_GDPS_RelativeVorticity_IsbL-0700_LatLon0.15_PT216H.grib2 2026-04-14 16:46 1.3M
20260414T12Z_MSC_GDPS_RelativeVorticity_IsbL-0850_LatLon0.15_PT216H.grib2 2026-04-14 16:46 1.6M
20260414T12Z_MSC_GDPS_Runoff-Accum_Sfc_LatLon0.15_PT216H.grib2 2026-04-14 16:46 115K
20260414T12Z_MSC_GDPS_SensibleHeatNetFlux_Sfc_LatLon0.15_PT216H.grib2 2026-04-14 16:46 643K
20260414T12Z_MSC_GDPS_ShowalterIndex_IsbL-0500_LatLon0.15_PT216H.grib2 2026-04-14 16:46 6.2M
20260414T12Z_MSC_GDPS_Snow-Accum12h_Sfc_LatLon0.15_PT216H.grib2 2026-04-14 16:46 1.6M
20260414T12Z_MSC_GDPS_Snow-Accum24h_Sfc_LatLon0.15_PT216H.grib2 2026-04-14 16:46 1.7M
20260414T12Z_MSC_GDPS_Snow-Accum6h_Sfc_LatLon0.15_PT216H.grib2 2026-04-14 16:46 1.5M
20260414T12Z_MSC_GDPS_Snow-Accum_Sfc_LatLon0.15_PT216H.grib2 2026-04-14 16:46 2.0M
20260414T12Z_MSC_GDPS_SnowDensity_Sfc_LatLon0.15_PT216H.grib2 2026-04-14 16:46 273K
20260414T12Z_MSC_GDPS_SnowDepth_Sfc_LatLon0.15_PT216H.grib2 2026-04-14 16:46 1.8M
20260414T12Z_MSC_GDPS_SoilTemp_DBS-0to10cm_LatLon0.15_PT216H.grib2 2026-04-14 16:46 511K
20260414T12Z_MSC_GDPS_SoilTemp_Sfc_LatLon0.15_PT216H.grib2 2026-04-14 16:46 577K
20260414T12Z_MSC_GDPS_SoilVolumetricIceContent_Sfc_LatLon0.15_PT216H.grib2 2026-04-14 16:46 219K
20260414T12Z_MSC_GDPS_SoilVolumetricWaterContent_DBS-0to10cm_LatLon0.15_PT216H.grib2 2026-04-14 16:46 557K
20260414T12Z_MSC_GDPS_SoilVolumetricWaterContent_DBS-0to1cm_LatLon0.15_PT216H.grib2 2026-04-14 16:46 649K
20260414T12Z_MSC_GDPS_SpecificHumidity_AGL-120m_LatLon0.15_PT216H.grib2 2026-04-14 16:46 1.1M
20260414T12Z_MSC_GDPS_SpecificHumidity_AGL-2m_LatLon0.15_PT216H.grib2 2026-04-14 16:46 1.2M
20260414T12Z_MSC_GDPS_SpecificHumidity_AGL-40m_LatLon0.15_PT216H.grib2 2026-04-14 16:46 1.1M
20260414T12Z_MSC_GDPS_SpecificHumidity_AGL-80m_LatLon0.15_PT216H.grib2 2026-04-14 16:46 1.1M
20260414T12Z_MSC_GDPS_SpecificHumidity_IsbL-0001_LatLon0.15_PT216H.grib2 2026-04-14 16:46 1.0M
20260414T12Z_MSC_GDPS_SpecificHumidity_IsbL-0005_LatLon0.15_PT216H.grib2 2026-04-14 16:46 1.0M
20260414T12Z_MSC_GDPS_SpecificHumidity_IsbL-0010_LatLon0.15_PT216H.grib2 2026-04-14 16:46 1.1M
20260414T12Z_MSC_GDPS_SpecificHumidity_IsbL-0020_LatLon0.15_PT216H.grib2 2026-04-14 16:46 1.4M
20260414T12Z_MSC_GDPS_SpecificHumidity_IsbL-0030_LatLon0.15_PT216H.grib2 2026-04-14 16:46 1.4M
20260414T12Z_MSC_GDPS_SpecificHumidity_IsbL-0050_LatLon0.15_PT216H.grib2 2026-04-14 16:46 1.2M
20260414T12Z_MSC_GDPS_SpecificHumidity_IsbL-0100_LatLon0.15_PT216H.grib2 2026-04-14 16:46 1.2M
20260414T12Z_MSC_GDPS_SpecificHumidity_IsbL-0150_LatLon0.15_PT216H.grib2 2026-04-14 16:46 1.3M
20260414T12Z_MSC_GDPS_SpecificHumidity_IsbL-0175_LatLon0.15_PT216H.grib2 2026-04-14 16:46 1.3M
20260414T12Z_MSC_GDPS_SpecificHumidity_IsbL-0200_LatLon0.15_PT216H.grib2 2026-04-14 16:46 1.3M
20260414T12Z_MSC_GDPS_SpecificHumidity_IsbL-0225_LatLon0.15_PT216H.grib2 2026-04-14 16:46 1.3M
20260414T12Z_MSC_GDPS_SpecificHumidity_IsbL-0250_LatLon0.15_PT216H.grib2 2026-04-14 16:46 1.4M
20260414T12Z_MSC_GDPS_SpecificHumidity_IsbL-0275_LatLon0.15_PT216H.grib2 2026-04-14 16:46 1.3M
20260414T12Z_MSC_GDPS_SpecificHumidity_IsbL-0300_LatLon0.15_PT216H.grib2 2026-04-14 16:46 1.5M
20260414T12Z_MSC_GDPS_SpecificHumidity_IsbL-0350_LatLon0.15_PT216H.grib2 2026-04-14 16:46 1.5M
20260414T12Z_MSC_GDPS_SpecificHumidity_IsbL-0400_LatLon0.15_PT216H.grib2 2026-04-14 16:46 1.5M
20260414T12Z_MSC_GDPS_SpecificHumidity_IsbL-0450_LatLon0.15_PT216H.grib2 2026-04-14 16:46 1.6M
20260414T12Z_MSC_GDPS_SpecificHumidity_IsbL-0500_LatLon0.15_PT216H.grib2 2026-04-14 16:46 1.4M
20260414T12Z_MSC_GDPS_SpecificHumidity_IsbL-0550_LatLon0.15_PT216H.grib2 2026-04-14 16:46 1.6M
20260414T12Z_MSC_GDPS_SpecificHumidity_IsbL-0600_LatLon0.15_PT216H.grib2 2026-04-14 16:46 1.7M
20260414T12Z_MSC_GDPS_SpecificHumidity_IsbL-0650_LatLon0.15_PT216H.grib2 2026-04-14 16:46 1.5M
20260414T12Z_MSC_GDPS_SpecificHumidity_IsbL-0700_LatLon0.15_PT216H.grib2 2026-04-14 16:46 1.6M
20260414T12Z_MSC_GDPS_SpecificHumidity_IsbL-0750_LatLon0.15_PT216H.grib2 2026-04-14 16:46 1.7M
20260414T12Z_MSC_GDPS_SpecificHumidity_IsbL-0800_LatLon0.15_PT216H.grib2 2026-04-14 16:46 1.8M
20260414T12Z_MSC_GDPS_SpecificHumidity_IsbL-0850_LatLon0.15_PT216H.grib2 2026-04-14 16:46 1.9M
20260414T12Z_MSC_GDPS_SpecificHumidity_IsbL-0875_LatLon0.15_PT216H.grib2 2026-04-14 16:46 1.9M
20260414T12Z_MSC_GDPS_SpecificHumidity_IsbL-0900_LatLon0.15_PT216H.grib2 2026-04-14 16:46 1.6M
20260414T12Z_MSC_GDPS_SpecificHumidity_IsbL-0925_LatLon0.15_PT216H.grib2 2026-04-14 16:46 1.6M
20260414T12Z_MSC_GDPS_SpecificHumidity_IsbL-0950_LatLon0.15_PT216H.grib2 2026-04-14 16:46 1.6M
20260414T12Z_MSC_GDPS_SpecificHumidity_IsbL-0970_LatLon0.15_PT216H.grib2 2026-04-14 16:46 1.5M
20260414T12Z_MSC_GDPS_SpecificHumidity_IsbL-0985_LatLon0.15_PT216H.grib2 2026-04-14 16:46 1.5M
20260414T12Z_MSC_GDPS_SpecificHumidity_IsbL-1000_LatLon0.15_PT216H.grib2 2026-04-14 16:46 1.5M
20260414T12Z_MSC_GDPS_SpecificHumidity_IsbL-1015_LatLon0.15_PT216H.grib2 2026-04-14 16:46 1.5M
20260414T12Z_MSC_GDPS_SpecificHumidity_Sfc_LatLon0.15_PT216H.grib2 2026-04-14 16:46 589K
20260414T12Z_MSC_GDPS_Thickness_IsbL-0850to0700_LatLon0.15_PT216H.grib2 2026-04-14 16:46 473K
20260414T12Z_MSC_GDPS_Thickness_IsbL-1000to0500_LatLon0.15_PT216H.grib2 2026-04-14 16:46 379K
20260414T12Z_MSC_GDPS_Thickness_IsbL-1000to0850_LatLon0.15_PT216H.grib2 2026-04-14 16:46 491K
20260414T12Z_MSC_GDPS_TotalCloudCover_Sfc_LatLon0.15_PT216H.grib2 2026-04-14 16:46 839K
20260414T12Z_MSC_GDPS_TotalTotalsIndex_Sfc_LatLon0.15_PT216H.grib2 2026-04-14 16:46 6.2M
20260414T12Z_MSC_GDPS_UVIndex-ClearSky_Sfc_LatLon0.15_PT216H.grib2 2026-04-14 16:57 1.0M
20260414T12Z_MSC_GDPS_UVIndex_Sfc_LatLon0.15_PT216H.grib2 2026-04-14 16:57 1.5M
20260414T12Z_MSC_GDPS_UpwardLongwaveRadiationFlux_NTAtm_LatLon0.15_PT216H.grib2 2026-04-14 16:46 852K
20260414T12Z_MSC_GDPS_VerticalVelocity_IsbL-0200_LatLon0.15_PT216H.grib2 2026-04-14 16:46 945K
20260414T12Z_MSC_GDPS_VerticalVelocity_IsbL-0250_LatLon0.15_PT216H.grib2 2026-04-14 16:46 1.1M
20260414T12Z_MSC_GDPS_VerticalVelocity_IsbL-0500_LatLon0.15_PT216H.grib2 2026-04-14 16:46 1.0M
20260414T12Z_MSC_GDPS_VerticalVelocity_IsbL-0600_LatLon0.15_PT216H.grib2 2026-04-14 16:46 1.1M
20260414T12Z_MSC_GDPS_VerticalVelocity_IsbL-0700_LatLon0.15_PT216H.grib2 2026-04-14 16:46 1.2M
20260414T12Z_MSC_GDPS_VerticalVelocity_IsbL-0850_LatLon0.15_PT216H.grib2 2026-04-14 16:46 1.4M
20260414T12Z_MSC_GDPS_WindChill_Sfc_LatLon0.15_PT216H.grib2 2026-04-14 16:46 5.3M
20260414T12Z_MSC_GDPS_WindDir_AGL-10m_LatLon0.15_PT216H.grib2 2026-04-14 16:46 1.3M
20260414T12Z_MSC_GDPS_WindDir_AGL-120m_LatLon0.15_PT216H.grib2 2026-04-14 16:46 1.4M
20260414T12Z_MSC_GDPS_WindDir_AGL-40m_LatLon0.15_PT216H.grib2 2026-04-14 16:46 1.4M
20260414T12Z_MSC_GDPS_WindDir_AGL-80m_LatLon0.15_PT216H.grib2 2026-04-14 16:46 1.4M
20260414T12Z_MSC_GDPS_WindDir_IsbL-0001_LatLon0.15_PT216H.grib2 2026-04-14 16:46 665K
20260414T12Z_MSC_GDPS_WindDir_IsbL-0005_LatLon0.15_PT216H.grib2 2026-04-14 16:46 789K
20260414T12Z_MSC_GDPS_WindDir_IsbL-0010_LatLon0.15_PT216H.grib2 2026-04-14 16:46 834K
20260414T12Z_MSC_GDPS_WindDir_IsbL-0020_LatLon0.15_PT216H.grib2 2026-04-14 16:46 940K
20260414T12Z_MSC_GDPS_WindDir_IsbL-0030_LatLon0.15_PT216H.grib2 2026-04-14 16:46 892K
20260414T12Z_MSC_GDPS_WindDir_IsbL-0050_LatLon0.15_PT216H.grib2 2026-04-14 16:46 946K
20260414T12Z_MSC_GDPS_WindDir_IsbL-0100_LatLon0.15_PT216H.grib2 2026-04-14 16:46 1.0M
20260414T12Z_MSC_GDPS_WindDir_IsbL-0150_LatLon0.15_PT216H.grib2 2026-04-14 16:46 1.0M
20260414T12Z_MSC_GDPS_WindDir_IsbL-0175_LatLon0.15_PT216H.grib2 2026-04-14 16:46 1.1M
20260414T12Z_MSC_GDPS_WindDir_IsbL-0200_LatLon0.15_PT216H.grib2 2026-04-14 16:46 1.1M
20260414T12Z_MSC_GDPS_WindDir_IsbL-0225_LatLon0.15_PT216H.grib2 2026-04-14 16:46 1.1M
20260414T12Z_MSC_GDPS_WindDir_IsbL-0250_LatLon0.15_PT216H.grib2 2026-04-14 16:46 1.1M
20260414T12Z_MSC_GDPS_WindDir_IsbL-0275_LatLon0.15_PT216H.grib2 2026-04-14 16:46 1.2M
20260414T12Z_MSC_GDPS_WindDir_IsbL-0300_LatLon0.15_PT216H.grib2 2026-04-14 16:46 1.2M
20260414T12Z_MSC_GDPS_WindDir_IsbL-0350_LatLon0.15_PT216H.grib2 2026-04-14 16:46 1.2M
20260414T12Z_MSC_GDPS_WindDir_IsbL-0400_LatLon0.15_PT216H.grib2 2026-04-14 16:46 1.2M
20260414T12Z_MSC_GDPS_WindDir_IsbL-0450_LatLon0.15_PT216H.grib2 2026-04-14 16:46 1.3M
20260414T12Z_MSC_GDPS_WindDir_IsbL-0500_LatLon0.15_PT216H.grib2 2026-04-14 16:46 1.3M
20260414T12Z_MSC_GDPS_WindDir_IsbL-0550_LatLon0.15_PT216H.grib2 2026-04-14 16:46 1.4M
20260414T12Z_MSC_GDPS_WindDir_IsbL-0600_LatLon0.15_PT216H.grib2 2026-04-14 16:46 1.5M
20260414T12Z_MSC_GDPS_WindDir_IsbL-0650_LatLon0.15_PT216H.grib2 2026-04-14 16:46 1.5M
20260414T12Z_MSC_GDPS_WindDir_IsbL-0700_LatLon0.15_PT216H.grib2 2026-04-14 16:46 1.6M
20260414T12Z_MSC_GDPS_WindDir_IsbL-0750_LatLon0.15_PT216H.grib2 2026-04-14 16:46 1.7M
20260414T12Z_MSC_GDPS_WindDir_IsbL-0800_LatLon0.15_PT216H.grib2 2026-04-14 16:46 1.8M
20260414T12Z_MSC_GDPS_WindDir_IsbL-0850_LatLon0.15_PT216H.grib2 2026-04-14 16:46 2.0M
20260414T12Z_MSC_GDPS_WindDir_IsbL-0875_LatLon0.15_PT216H.grib2 2026-04-14 16:46 2.0M
20260414T12Z_MSC_GDPS_WindDir_IsbL-0900_LatLon0.15_PT216H.grib2 2026-04-14 16:46 2.0M
20260414T12Z_MSC_GDPS_WindDir_IsbL-0925_LatLon0.15_PT216H.grib2 2026-04-14 16:46 2.0M
20260414T12Z_MSC_GDPS_WindDir_IsbL-0950_LatLon0.15_PT216H.grib2 2026-04-14 16:46 2.0M
20260414T12Z_MSC_GDPS_WindDir_IsbL-0970_LatLon0.15_PT216H.grib2 2026-04-14 16:46 2.0M
20260414T12Z_MSC_GDPS_WindDir_IsbL-0985_LatLon0.15_PT216H.grib2 2026-04-14 16:46 2.0M
20260414T12Z_MSC_GDPS_WindDir_IsbL-1000_LatLon0.15_PT216H.grib2 2026-04-14 16:46 2.1M
20260414T12Z_MSC_GDPS_WindDir_IsbL-1015_LatLon0.15_PT216H.grib2 2026-04-14 16:46 2.0M
20260414T12Z_MSC_GDPS_WindGust-Max_AGL-10m_LatLon0.15_PT216H.grib2 2026-04-14 16:46 2.2M
20260414T12Z_MSC_GDPS_WindGust-Min_AGL-10m_LatLon0.15_PT216H.grib2 2026-04-14 16:46 2.2M
20260414T12Z_MSC_GDPS_WindGust_AGL-10m_LatLon0.15_PT216H.grib2 2026-04-14 16:46 2.1M
20260414T12Z_MSC_GDPS_WindSpeed_AGL-10m_LatLon0.15_PT216H.grib2 2026-04-14 16:46 1.1M
20260414T12Z_MSC_GDPS_WindSpeed_AGL-120m_LatLon0.15_PT216H.grib2 2026-04-14 16:46 1.2M
20260414T12Z_MSC_GDPS_WindSpeed_AGL-40m_LatLon0.15_PT216H.grib2 2026-04-14 16:46 1.2M
20260414T12Z_MSC_GDPS_WindSpeed_AGL-80m_LatLon0.15_PT216H.grib2 2026-04-14 16:46 1.2M
20260414T12Z_MSC_GDPS_WindSpeed_IsbL-0001_LatLon0.15_PT216H.grib2 2026-04-14 16:46 631K
20260414T12Z_MSC_GDPS_WindSpeed_IsbL-0005_LatLon0.15_PT216H.grib2 2026-04-14 16:46 682K
20260414T12Z_MSC_GDPS_WindSpeed_IsbL-0010_LatLon0.15_PT216H.grib2 2026-04-14 16:46 618K
20260414T12Z_MSC_GDPS_WindSpeed_IsbL-0020_LatLon0.15_PT216H.grib2 2026-04-14 16:46 846K
20260414T12Z_MSC_GDPS_WindSpeed_IsbL-0030_LatLon0.15_PT216H.grib2 2026-04-14 16:46 843K
20260414T12Z_MSC_GDPS_WindSpeed_IsbL-0050_LatLon0.15_PT216H.grib2 2026-04-14 16:46 1.0M
20260414T12Z_MSC_GDPS_WindSpeed_IsbL-0100_LatLon0.15_PT216H.grib2 2026-04-14 16:46 1.1M
20260414T12Z_MSC_GDPS_WindSpeed_IsbL-0150_LatLon0.15_PT216H.grib2 2026-04-14 16:46 1.0M
20260414T12Z_MSC_GDPS_WindSpeed_IsbL-0175_LatLon0.15_PT216H.grib2 2026-04-14 16:46 1.0M
20260414T12Z_MSC_GDPS_WindSpeed_IsbL-0200_LatLon0.15_PT216H.grib2 2026-04-14 16:46 1.1M
20260414T12Z_MSC_GDPS_WindSpeed_IsbL-0225_LatLon0.15_PT216H.grib2 2026-04-14 16:46 1.1M
20260414T12Z_MSC_GDPS_WindSpeed_IsbL-0250_LatLon0.15_PT216H.grib2 2026-04-14 16:46 1.1M
20260414T12Z_MSC_GDPS_WindSpeed_IsbL-0275_LatLon0.15_PT216H.grib2 2026-04-14 16:46 1.1M
20260414T12Z_MSC_GDPS_WindSpeed_IsbL-0300_LatLon0.15_PT216H.grib2 2026-04-14 16:46 1.1M
20260414T12Z_MSC_GDPS_WindSpeed_IsbL-0350_LatLon0.15_PT216H.grib2 2026-04-14 16:46 1.1M
20260414T12Z_MSC_GDPS_WindSpeed_IsbL-0400_LatLon0.15_PT216H.grib2 2026-04-14 16:46 1.1M
20260414T12Z_MSC_GDPS_WindSpeed_IsbL-0450_LatLon0.15_PT216H.grib2 2026-04-14 16:46 1.1M
20260414T12Z_MSC_GDPS_WindSpeed_IsbL-0500_LatLon0.15_PT216H.grib2 2026-04-14 16:46 1.1M
20260414T12Z_MSC_GDPS_WindSpeed_IsbL-0550_LatLon0.15_PT216H.grib2 2026-04-14 16:46 1.1M
20260414T12Z_MSC_GDPS_WindSpeed_IsbL-0600_LatLon0.15_PT216H.grib2 2026-04-14 16:46 1.1M
20260414T12Z_MSC_GDPS_WindSpeed_IsbL-0650_LatLon0.15_PT216H.grib2 2026-04-14 16:46 1.5M
20260414T12Z_MSC_GDPS_WindSpeed_IsbL-0700_LatLon0.15_PT216H.grib2 2026-04-14 16:46 1.5M
20260414T12Z_MSC_GDPS_WindSpeed_IsbL-0750_LatLon0.15_PT216H.grib2 2026-04-14 16:46 1.6M
20260414T12Z_MSC_GDPS_WindSpeed_IsbL-0800_LatLon0.15_PT216H.grib2 2026-04-14 16:46 1.6M
20260414T12Z_MSC_GDPS_WindSpeed_IsbL-0850_LatLon0.15_PT216H.grib2 2026-04-14 16:46 1.7M
20260414T12Z_MSC_GDPS_WindSpeed_IsbL-0875_LatLon0.15_PT216H.grib2 2026-04-14 16:46 1.8M
20260414T12Z_MSC_GDPS_WindSpeed_IsbL-0900_LatLon0.15_PT216H.grib2 2026-04-14 16:46 1.8M
20260414T12Z_MSC_GDPS_WindSpeed_IsbL-0925_LatLon0.15_PT216H.grib2 2026-04-14 16:46 1.9M
20260414T12Z_MSC_GDPS_WindSpeed_IsbL-0950_LatLon0.15_PT216H.grib2 2026-04-14 16:46 1.9M
20260414T12Z_MSC_GDPS_WindSpeed_IsbL-0970_LatLon0.15_PT216H.grib2 2026-04-14 16:46 1.9M
20260414T12Z_MSC_GDPS_WindSpeed_IsbL-0985_LatLon0.15_PT216H.grib2 2026-04-14 16:46 1.9M
20260414T12Z_MSC_GDPS_WindSpeed_IsbL-1000_LatLon0.15_PT216H.grib2 2026-04-14 16:46 1.9M
20260414T12Z_MSC_GDPS_WindSpeed_IsbL-1015_LatLon0.15_PT216H.grib2 2026-04-14 16:46 1.8M
20260414T12Z_MSC_GDPS_WindU_AGL-10m_LatLon0.15_PT216H.grib2 2026-04-14 16:46 1.3M
20260414T12Z_MSC_GDPS_WindU_AGL-120m_LatLon0.15_PT216H.grib2 2026-04-14 16:46 1.0M
20260414T12Z_MSC_GDPS_WindU_AGL-40m_LatLon0.15_PT216H.grib2 2026-04-14 16:46 1.0M
20260414T12Z_MSC_GDPS_WindU_AGL-80m_LatLon0.15_PT216H.grib2 2026-04-14 16:46 1.0M
20260414T12Z_MSC_GDPS_WindU_IsbL-0001_LatLon0.15_PT216H.grib2 2026-04-14 16:46 636K
20260414T12Z_MSC_GDPS_WindU_IsbL-0005_LatLon0.15_PT216H.grib2 2026-04-14 16:46 679K
20260414T12Z_MSC_GDPS_WindU_IsbL-0010_LatLon0.15_PT216H.grib2 2026-04-14 16:46 693K
20260414T12Z_MSC_GDPS_WindU_IsbL-0020_LatLon0.15_PT216H.grib2 2026-04-14 16:46 727K
20260414T12Z_MSC_GDPS_WindU_IsbL-0030_LatLon0.15_PT216H.grib2 2026-04-14 16:46 728K
20260414T12Z_MSC_GDPS_WindU_IsbL-0050_LatLon0.15_PT216H.grib2 2026-04-14 16:46 694K
20260414T12Z_MSC_GDPS_WindU_IsbL-0100_LatLon0.15_PT216H.grib2 2026-04-14 16:46 919K
20260414T12Z_MSC_GDPS_WindU_IsbL-0150_LatLon0.15_PT216H.grib2 2026-04-14 16:46 1.0M
20260414T12Z_MSC_GDPS_WindU_IsbL-0175_LatLon0.15_PT216H.grib2 2026-04-14 16:46 822K
20260414T12Z_MSC_GDPS_WindU_IsbL-0200_LatLon0.15_PT216H.grib2 2026-04-14 16:46 855K
20260414T12Z_MSC_GDPS_WindU_IsbL-0225_LatLon0.15_PT216H.grib2 2026-04-14 16:46 926K
20260414T12Z_MSC_GDPS_WindU_IsbL-0250_LatLon0.15_PT216H.grib2 2026-04-14 16:46 873K
20260414T12Z_MSC_GDPS_WindU_IsbL-0275_LatLon0.15_PT216H.grib2 2026-04-14 16:46 956K
20260414T12Z_MSC_GDPS_WindU_IsbL-0300_LatLon0.15_PT216H.grib2 2026-04-14 16:46 890K
20260414T12Z_MSC_GDPS_WindU_IsbL-0350_LatLon0.15_PT216H.grib2 2026-04-14 16:46 902K
20260414T12Z_MSC_GDPS_WindU_IsbL-0400_LatLon0.15_PT216H.grib2 2026-04-14 16:46 899K
20260414T12Z_MSC_GDPS_WindU_IsbL-0450_LatLon0.15_PT216H.grib2 2026-04-14 16:46 897K
20260414T12Z_MSC_GDPS_WindU_IsbL-0500_LatLon0.15_PT216H.grib2 2026-04-14 16:46 1.1M
20260414T12Z_MSC_GDPS_WindU_IsbL-0550_LatLon0.15_PT216H.grib2 2026-04-14 16:46 1.1M
20260414T12Z_MSC_GDPS_WindU_IsbL-0600_LatLon0.15_PT216H.grib2 2026-04-14 16:46 1.2M
20260414T12Z_MSC_GDPS_WindU_IsbL-0650_LatLon0.15_PT216H.grib2 2026-04-14 16:46 1.2M
20260414T12Z_MSC_GDPS_WindU_IsbL-0700_LatLon0.15_PT216H.grib2 2026-04-14 16:46 1.2M
20260414T12Z_MSC_GDPS_WindU_IsbL-0750_LatLon0.15_PT216H.grib2 2026-04-14 16:46 1.3M
20260414T12Z_MSC_GDPS_WindU_IsbL-0800_LatLon0.15_PT216H.grib2 2026-04-14 16:46 1.4M
20260414T12Z_MSC_GDPS_WindU_IsbL-0850_LatLon0.15_PT216H.grib2 2026-04-14 16:46 1.4M
20260414T12Z_MSC_GDPS_WindU_IsbL-0875_LatLon0.15_PT216H.grib2 2026-04-14 16:46 1.5M
20260414T12Z_MSC_GDPS_WindU_IsbL-0900_LatLon0.15_PT216H.grib2 2026-04-14 16:46 1.5M
20260414T12Z_MSC_GDPS_WindU_IsbL-0925_LatLon0.15_PT216H.grib2 2026-04-14 16:46 1.5M
20260414T12Z_MSC_GDPS_WindU_IsbL-0950_LatLon0.15_PT216H.grib2 2026-04-14 16:46 1.4M
20260414T12Z_MSC_GDPS_WindU_IsbL-0970_LatLon0.15_PT216H.grib2 2026-04-14 16:46 1.4M
20260414T12Z_MSC_GDPS_WindU_IsbL-0985_LatLon0.15_PT216H.grib2 2026-04-14 16:46 1.4M
20260414T12Z_MSC_GDPS_WindU_IsbL-1000_LatLon0.15_PT216H.grib2 2026-04-14 16:46 1.4M
20260414T12Z_MSC_GDPS_WindU_IsbL-1015_LatLon0.15_PT216H.grib2 2026-04-14 16:46 1.4M
20260414T12Z_MSC_GDPS_WindV_AGL-10m_LatLon0.15_PT216H.grib2 2026-04-14 16:46 1.3M
20260414T12Z_MSC_GDPS_WindV_AGL-120m_LatLon0.15_PT216H.grib2 2026-04-14 16:46 1.0M
20260414T12Z_MSC_GDPS_WindV_AGL-40m_LatLon0.15_PT216H.grib2 2026-04-14 16:46 971K
20260414T12Z_MSC_GDPS_WindV_AGL-80m_LatLon0.15_PT216H.grib2 2026-04-14 16:46 1.0M
20260414T12Z_MSC_GDPS_WindV_IsbL-0001_LatLon0.15_PT216H.grib2 2026-04-14 16:46 695K
20260414T12Z_MSC_GDPS_WindV_IsbL-0005_LatLon0.15_PT216H.grib2 2026-04-14 16:46 841K
20260414T12Z_MSC_GDPS_WindV_IsbL-0010_LatLon0.15_PT216H.grib2 2026-04-14 16:46 781K
20260414T12Z_MSC_GDPS_WindV_IsbL-0020_LatLon0.15_PT216H.grib2 2026-04-14 16:46 839K
20260414T12Z_MSC_GDPS_WindV_IsbL-0030_LatLon0.15_PT216H.grib2 2026-04-14 16:46 839K
20260414T12Z_MSC_GDPS_WindV_IsbL-0050_LatLon0.15_PT216H.grib2 2026-04-14 16:46 899K
20260414T12Z_MSC_GDPS_WindV_IsbL-0100_LatLon0.15_PT216H.grib2 2026-04-14 16:46 1.1M
20260414T12Z_MSC_GDPS_WindV_IsbL-0150_LatLon0.15_PT216H.grib2 2026-04-14 16:46 1.0M
20260414T12Z_MSC_GDPS_WindV_IsbL-0175_LatLon0.15_PT216H.grib2 2026-04-14 16:46 1.0M
20260414T12Z_MSC_GDPS_WindV_IsbL-0200_LatLon0.15_PT216H.grib2 2026-04-14 16:46 1.1M
20260414T12Z_MSC_GDPS_WindV_IsbL-0225_LatLon0.15_PT216H.grib2 2026-04-14 16:46 865K
20260414T12Z_MSC_GDPS_WindV_IsbL-0250_LatLon0.15_PT216H.grib2 2026-04-14 16:46 866K
20260414T12Z_MSC_GDPS_WindV_IsbL-0275_LatLon0.15_PT216H.grib2 2026-04-14 16:46 894K
20260414T12Z_MSC_GDPS_WindV_IsbL-0300_LatLon0.15_PT216H.grib2 2026-04-14 16:46 881K
20260414T12Z_MSC_GDPS_WindV_IsbL-0350_LatLon0.15_PT216H.grib2 2026-04-14 16:46 888K
20260414T12Z_MSC_GDPS_WindV_IsbL-0400_LatLon0.15_PT216H.grib2 2026-04-14 16:46 886K
20260414T12Z_MSC_GDPS_WindV_IsbL-0450_LatLon0.15_PT216H.grib2 2026-04-14 16:46 883K
20260414T12Z_MSC_GDPS_WindV_IsbL-0500_LatLon0.15_PT216H.grib2 2026-04-14 16:46 1.1M
20260414T12Z_MSC_GDPS_WindV_IsbL-0550_LatLon0.15_PT216H.grib2 2026-04-14 16:46 1.1M
20260414T12Z_MSC_GDPS_WindV_IsbL-0600_LatLon0.15_PT216H.grib2 2026-04-14 16:46 1.1M
20260414T12Z_MSC_GDPS_WindV_IsbL-0650_LatLon0.15_PT216H.grib2 2026-04-14 16:46 1.2M
20260414T12Z_MSC_GDPS_WindV_IsbL-0700_LatLon0.15_PT216H.grib2 2026-04-14 16:46 1.2M
20260414T12Z_MSC_GDPS_WindV_IsbL-0750_LatLon0.15_PT216H.grib2 2026-04-14 16:46 1.3M
20260414T12Z_MSC_GDPS_WindV_IsbL-0800_LatLon0.15_PT216H.grib2 2026-04-14 16:46 1.3M
20260414T12Z_MSC_GDPS_WindV_IsbL-0850_LatLon0.15_PT216H.grib2 2026-04-14 16:46 1.4M
20260414T12Z_MSC_GDPS_WindV_IsbL-0875_LatLon0.15_PT216H.grib2 2026-04-14 16:46 1.4M
20260414T12Z_MSC_GDPS_WindV_IsbL-0900_LatLon0.15_PT216H.grib2 2026-04-14 16:46 1.5M
20260414T12Z_MSC_GDPS_WindV_IsbL-0925_LatLon0.15_PT216H.grib2 2026-04-14 16:46 1.4M
20260414T12Z_MSC_GDPS_WindV_IsbL-0950_LatLon0.15_PT216H.grib2 2026-04-14 16:46 1.4M
20260414T12Z_MSC_GDPS_WindV_IsbL-0970_LatLon0.15_PT216H.grib2 2026-04-14 16:46 1.4M
20260414T12Z_MSC_GDPS_WindV_IsbL-0985_LatLon0.15_PT216H.grib2 2026-04-14 16:46 1.4M
20260414T12Z_MSC_GDPS_WindV_IsbL-1000_LatLon0.15_PT216H.grib2 2026-04-14 16:46 1.4M
20260414T12Z_MSC_GDPS_WindV_IsbL-1015_LatLon0.15_PT216H.grib2 2026-04-14 16:46 1.3M